GW2364 Weather Reports


Display with metric or nautical units.
time (UTC)temp
F
wind
direction
speed
MPH
gust
MPH
rain 1hr
in
rain 24hr
in
rain mn
in
humidity
%
barometer
mb
20260502220003 73 80 1.0 6.0 0.00 0.03 0.00 45 1019.1
20260502214500 74 18 3.0 9.0 0.00 0.13 0.00 45 1019.1
20260502213001 74 58 5.0 14.0 0.00 0.13 0.00 44 1019.2
20260502211502 73 57 3.0 14.0 0.00 0.13 0.00 44 1019.4
20260502210003 74 67 6.0 15.0 0.00 0.13 0.00 42 1019.5
20260502204502 73 39 4.0 12.0 0.00 0.15 0.00 44 1019.8
20260502203001 73 63 5.0 13.0 0.00 0.15 0.00 39 1020.3
20260502201600 73 36 4.0 13.0 0.00 0.15 0.00 43 1020.3
20260502200135 73 29 5.0 12.0 0.00 0.15 0.00 43 1020.5
20260502200005 73 13 6.0 12.0 0.00 0.15 0.00 45 1020.5
20260502194609 72 306 1.0 10.0 0.00 0.23 0.00 47 1020.4
20260502194501 72 306 2.0 13.0 0.00 0.23 0.00 48 1020.5
20260502193101 72 59 4.0 13.0 0.00 0.23 0.00 48 1020.5
20260502193002 72 62 4.0 13.0 0.00 0.23 0.00 49 1020.5
20260502191610 72 75 6.0 15.0 0.00 0.23 0.00 48 1020.6
20260502190101 71 14 3.0 11.0 0.00 0.23 0.00 52 1020.6
20260502190004 71 57 3.0 11.0 0.00 0.23 0.00 51 1020.7
20260502184601 70 53 4.0 13.0 0.00 0.38 0.00 52 1020.8
20260502183115 71 70 3.0 9.0 0.00 0.38 0.00 54 1021.0
20260502183002 71 25 2.0 9.0 0.00 0.38 0.00 54 1021.0
20260502181600 70 65 5.0 11.0 0.00 0.38 0.00 56 1021.4
20260502181507 70 13 3.0 11.0 0.00 0.38 0.00 55 1021.4
20260502163101 66 5 4.0 9.0 0.00 0.48 0.00 62 1022.2
20260502161606 66 79 3.0 7.0 0.00 0.48 0.00 62 1022.5
20260502160107 66 28 2.0 8.0 0.00 0.48 0.00 61 1022.6
20260502151611 63 337 1.0 5.0 0.00 0.52 0.00 73 1022.5
20260502150131 61 291 1.0 4.0 0.00 0.52 0.00 77 1022.4
20260502130108 51 300 0.0 3.0 0.00 0.73 0.00 92 1021.2
20260502123100 50 310 0.0 3.0 0.00 0.79 0.00 90 1020.8
20260502121604 50 323 1.0 3.0 0.00 0.79 0.00 90 1020.5
20260502120115 50 331 1.0 2.0 0.00 0.79 0.00 88 1020.1
20260502114622 50 355 2.0 6.0 0.00 0.94 0.00 89 1019.7
20260502113116 50 298 0.0 3.0 0.00 0.94 0.00 89 1019.6
20260502111607 50 15 0.0 4.0 0.00 0.94 0.00 89 1019.5
20260502110106 50 5 0.0 4.0 0.00 0.94 0.00 89 1019.5
20260502110002 50 319 0.0 3.0 0.00 0.94 0.00 89 1019.4
20260502104600 51 5 2.0 5.0 0.00 1.18 0.00 88 1019.3
20260502103115 50 336 3.0 6.0 0.00 1.18 0.00 89 1018.9
20260502101610 51 33 2.0 8.0 0.00 1.18 0.00 89 1018.6
20260502090110 50 29 2.0 6.0 0.00 1.29 0.00 91 1017.7
20260502080104 51 341 3.0 9.0 0.00 1.35 0.00 92 1017.4
20260502070105 52 360 2.0 6.0 0.00 1.35 0.00 91 1017.5
20260502070002 52 12 2.0 6.0 0.00 1.35 0.00 91 1017.5
20260502064559 52 30 2.0 4.0 0.00 1.35 0.00 91 1017.3
20260502063124 52 51 2.0 6.0 0.00 1.35 0.00 91 1017.5
20260502061600 52 5 3.0 6.0 0.00 1.35 0.00 91 1017.7
20260502060107 52 342 1.0 4.0 0.00 1.35 0.00 91 1017.8
20260502054501 52 15 2.0 5.0 0.00 1.35 0.00 91 1017.7
20260502053001 52 346 2.0 6.0 0.00 1.35 0.00 92 1017.6
20260502051501 52 44 3.0 8.0 0.00 1.35 0.00 92 1017.4
20260502050006 53 5 1.0 5.0 0.00 1.35 0.00 91 1017.5
20260502044501 53 30 2.0 4.0 0.00 1.35 1.35 90 1017.4
20260502043002 53 355 1.0 5.0 0.00 1.35 1.35 91 1017.5
20260502041501 52 5 2.0 6.0 0.00 1.35 1.35 91 1017.4
20260502040007 53 55 2.0 7.0 0.00 1.35 1.35 91 1017.3
20260502034501 53 17 3.0 6.0 0.00 1.36 1.35 91 1017.3
20260502033001 53 5 1.0 4.0 0.00 1.36 1.35 90 1017.6
20260502031501 53 5 2.0 12.0 0.00 1.36 1.35 90 1017.3
20260502030005 53 24 3.0 12.0 0.00 1.36 1.35 90 1017.0
20260502024502 53 54 5.0 12.0 0.00 1.41 1.35 90 1016.9
20260502023001 53 9 3.0 10.0 0.00 1.41 1.35 91 1016.6
20260502021501 53 59 5.0 13.0 0.00 1.41 1.35 91 1016.1
20260502020003 52 55 3.0 8.0 0.00 1.41 1.35 91 1016.0
20260502014500 53 53 2.0 8.0 0.00 1.41 1.35 91 1015.7
20260502013001 52 61 4.0 9.0 0.00 1.41 1.35 91 1015.4
20260502011501 52 46 4.0 13.0 0.00 1.41 1.35 92 1015.3
20260502010002 52 78 5.0 13.0 0.00 1.41 1.35 93 1015.0
20260502004600 52 360 3.0 13.0 0.01 1.41 1.35 94 1014.5
20260502003004 52 34 6.0 15.0 0.02 1.41 1.35 94 1014.2
20260502001503 52 36 9.0 26.0 0.02 1.41 1.35 95 1014.0
20260502000002 53 33 9.0 20.0 0.02 1.41 1.35 96 1013.6
20260501234601 54 54 8.0 15.0 0.01 1.40 1.34 96 1012.9
20260501233103 54 15 6.0 14.0 0.00 1.39 1.33 96 1014.2
20260501233002 54 42 5.0 13.0 0.00 1.39 1.33 96 1014.1
20260501231559 54 44 5.0 18.0 0.00 1.39 1.33 96 1013.4
20260501230003 54 44 7.0 17.0 0.01 1.39 1.33 96 1013.0
20260501224600 55 52 7.0 16.0 0.03 1.39 1.33 96 1013.2
20260501223112 55 19 4.0 12.0 0.07 1.39 1.33 96 1013.0
20260501221601 55 45 7.0 12.0 0.10 1.39 1.33 96 1012.5